Temperature
19 18 18 19 19 19 19 19 19 20 21 20 18 18 19 21 21 21 21 21 20 20 19 18 17 16 16 15 14 14 13 13 12 12 12 11 11 11 11 10 10 10 10 10
18 17 19 20 20 19 19 18 18 19 21 19 18 18 19 20 20 20 20 20 20 20 19 18 17 16 15 15 14 14 13 13 12 12 12 12 11 11 11 10 10 10 10 10
18 19 19 19 19 18 18 18 18 18 18 19 18 18 20 20 21 21 20 20 20 19 19 18 17 16 15 15 14 14 13 13 13 12 12 11 11 11 10 10 10 10 10 9
18 19 19 18 18 18 18 19 19 18 17 17 18 16 19 20 20 20 20 20 19 19 19 18 17 16 15 15 14 14 13 13 13 12 12 11 11 11 11 10 10 10 10 9
18 19 18 18 18 19 18 18 18 17 16 16 17 17 18 20 20 19 19 20 19 18 18 18 17 16 15 14 14 14 13 13 13 12 12 11 11 11 11 10 10 10 10 10
18 19 19 19 18 18 18 18 17 17 16 15 17 17 18 19 20 20 19 19 19 18 17 17 16 15 15 14 14 13 13 13 12 12 12 11 11 11 10 10 10 10 10 10
17 18 18 18 17 17 17 16 15 15 14 15 18 18 18 20 20 20 19 19 18 18 17 16 16 15 14 14 14 13 13 13 12 12 12 11 11 10 10 10 10 10 10 10
16 17 17 17 17 17 16 16 16 16 16 17 18 17 19 20 20 20 19 19 18 17 17 16 16 15 14 14 14 13 13 13 12 12 12 11 11 10 10 10 10 10 10 10
18 17 18 17 18 18 17 16 17 16 16 16 17 19 20 20 19 19 19 19 18 17 17 16 16 15 15 14 14 14 13 13 12 12 12 11 11 10 10 10 10 9 9 9
18 17 17 16 16 16 16 17 16 15 15 15 17 18 18 18 18 19 18 19 18 18 17 16 16 15 15 14 14 13 13 12 12 12 11 11 10 10 10 9 9 9 9 9
18 17 15 15 15 15 15 16 16 16 16 15 15 17 19 19 19 19 19 19 19 18 17 16 16 15 15 14 13 13 12 12 11 11 11 10 10 10 9 9 9 9 9 8
17 17 15 15 16 17 16 16 16 15 15 16 15 16 20 20 19 19 19 19 19 18 17 16 15 15 14 14 13 12 12 11 11 11 10 10 10 9 9 9 9 9 8 8
16 16 15 15 14 15 15 16 16 16 15 15 14 16 19 18 19 19 19 19 18 18 17 16 15 14 14 13 13 12 12 11 11 10 10 9 9 9 9 9 8 8 8 8
16 15 15 15 16 15 15 15 16 15 14 14 15 16 18 18 18 18 19 19 18 17 16 15 14 14 13 13 12 12 11 11 10 10 9 9 9 9 8 8 8 7 7 7
15 14 15 16 17 17 16 16 15 15 15 15 16 16 17 18 18 18 19 18 18 17 16 15 14 13 13 12 12 11 11 10 10 9 9 9 9 8 8 7 7 7 6 6
14 14 15 15 16 16 16 16 15 15 15 15 15 16 17 18 19 18 18 18 17 16 16 15 14 13 13 12 12 11 11 10 10 9 9 8 8 8 7 7 6 6 6 6
13 13 14 13 15 15 14 15 15 15 15 15 15 16 17 17 17 17 17 17 16 16 15 14 14 13 13 12 12 11 11 10 10 9 8 8 8 7 7 6 6 6 5 5
13 13 12 12 13 11 14 17 16 16 16 16 16 16 16 17 17 17 17 16 16 15 14 14 13 13 12 12 11 11 10 10 9 9 8 8 7 7 6 6 5 5 5 4
13 13 12 11 11 12 15 16 16 15 15 16 16 16 17 17 16 16 16 16 15 15 14 14 13 13 12 11 11 10 10 9 9 8 8 7 6 6 5 5 5 4 4 3
12 12 11 11 11 11 15 16 17 16 14 16 16 15 16 15 12 13 15 15 15 14 14 13 13 12 11 11 10 10 9 9 8 8 7 6 6 5 5 4 4 3 3 3
10 11 10 10 10 12 16 15 15 13 14 16 17 16 16 13 13 15 15 14 14 13 13 12 12 11 11 10 9 9 8 8 7 7 6 6 5 5 4 4 3 3 2 2
10 10 10 10 10 11 13 13 13 14 16 17 16 16 16 15 15 14 14 13 13 12 12 11 11 10 10 9 9 8 7 7 6 6 5 5 4 4 3 3 2 2 1 1
12 12 12 12 13 15 15 15 16 16 16 16 16 15 15 14 14 13 13 12 12 11 11 10 10 9 9 8 8 7 7 6 6 5 5 4 4 3 3 2 1 1 0 0
13 14 13 13 14 15 15 16 16 16 16 16 15 15 14 14 13 12 12 11 11 10 10 9 9 8 8 7 7 6 6 5 5 4 4 3 3 2 2 1 1 0 -0 -1
13 12 12 12 14 14 15 15 15 15 15 15 14 14 14 13 12 12 11 10 10 9 9 8 8 7 7 6 6 5 5 5 4 4 3 2 2 1 1 0 -0 -1 -1 -2
12 12 12 12 13 13 14 15 15 15 14 14 14 13 13 12 12 11 10 10 9 8 8 7 7 6 6 5 5 4 4 4 3 3 2 2 1 1 0 -1 -1 -2 -2 -3
Wind_Speed
9 7 9 8 7 6 7 8 9 9 6 4 10 14 15 12 10 9 9 9 9 9 10 10 11 11 10 9 10 11 11 10 8 7 7 6 6 5 4 6 8 9 8 7
9 12 11 6 3 5 8 10 11 9 4 5 10 15 16 10 8 7 7 7 7 7 8 10 10 10 11 10 10 11 12 11 9 8 7 6 6 5 4 5 7 9 8 7
15 6 7 9 8 8 10 10 9 9 10 9 9 11 7 4 4 5 6 6 6 6 8 10 11 11 10 10 11 10 11 11 10 9 7 6 4 4 4 5 4 6 8 7
12 11 6 8 9 9 9 4 5 7 7 6 5 7 8 5 5 5 5 5 5 5 6 9 11 11 11 10 10 10 10 11 10 10 9 9 7 6 6 5 5 5 8 8
8 9 10 10 9 8 5 0 4 7 8 8 8 7 7 5 5 4 4 4 4 5 5 7 10 11 10 9 9 9 10 10 10 10 11 10 7 6 5 6 7 7 5 7
9 4 7 7 4 3 2 3 8 7 5 7 8 7 6 2 2 2 3 3 4 4 5 5 8 9 9 9 9 8 9 10 10 10 11 11 10 8 8 7 8 6 4 4
11 10 6 4 5 5 5 4 4 5 6 7 4 5 7 2 4 3 2 2 3 5 5 6 8 9 10 10 10 9 10 10 11 11 11 11 11 10 10 8 8 7 5 4
11 11 13 9 8 6 9 7 5 4 3 2 3 7 5 5 6 4 3 3 4 4 5 7 8 9 10 11 11 11 11 10 11 11 11 10 10 8 7 8 7 7 6 6
10 7 8 9 6 5 8 10 6 5 7 6 6 6 5 5 6 5 5 5 5 5 6 7 8 9 10 11 12 12 12 11 11 11 10 9 9 8 8 8 7 6 6 6
6 4 7 6 4 6 5 4 4 5 5 6 8 9 5 7 7 6 6 5 5 6 6 7 7 9 9 10 10 11 11 11 10 10 10 8 9 8 8 7 8 7 7 6
10 5 6 7 12 12 9 7 6 6 6 4 5 4 1 5 6 4 4 4 4 4 5 5 5 6 7 8 9 10 10 10 10 10 9 9 8 8 8 7 8 7 7 7
10 5 6 8 6 6 11 12 11 7 7 6 5 6 2 4 5 3 3 4 5 5 5 5 5 5 6 7 8 9 9 9 9 9 8 8 8 8 8 7 7 7 7 7
10 7 6 6 3 6 8 12 13 10 6 7 8 7 2 4 4 4 4 5 4 4 5 4 4 5 5 6 6 7 7 8 7 8 8 7 7 8 8 7 7 7 7 7
7 6 9 9 4 8 9 12 13 12 10 11 13 12 7 5 5 4 4 3 3 3 3 3 3 3 4 5 6 6 6 6 6 7 7 7 7 7 7 6 6 6 6 6
4 7 10 10 5 4 9 11 14 16 16 12 13 14 12 9 6 4 3 2 1 2 3 4 4 3 3 4 5 5 5 5 5 6 6 6 6 5 5 5 6 5 6 6
5 5 8 11 9 7 9 12 14 17 16 17 16 18 13 9 6 5 4 2 2 3 3 4 4 4 4 4 4 5 5 5 5 5 5 5 5 5 5 5 5 5 5 5
7 6 6 8 9 7 11 14 15 14 13 14 18 18 11 10 8 5 4 3 4 4 4 4 4 4 4 3 4 4 4 4 5 5 4 5 5 5 5 5 5 5 6 6
8 8 5 4 5 11 10 8 12 15 16 15 13 12 10 9 5 4 5 6 5 4 4 4 4 3 3 3 3 3 4 4 5 4 4 4 5 5 5 5 5 5 5 5
9 9 5 5 7 9 8 8 9 11 13 13 14 13 10 4 3 6 6 5 4 3 3 3 4 4 3 3 4 5 4 4 4 4 4 4 4 4 5 5 5 5 4 5
5 7 6 6 7 8 6 6 6 5 9 10 11 10 7 4 4 6 2 4 4 4 3 3 3 3 3 3 5 5 4 4 4 4 3 3 3 4 4 5 5 4 4 5
7 7 10 9 8 8 5 6 9 7 8 5 6 6 6 8 8 5 5 4 4 4 4 4 4 3 3 4 5 4 4 3 3 3 2 2 2 3 4 4 4 4 4 5
11 9 10 9 8 10 6 9 10 8 3 3 4 5 5 6 4 4 4 5 5 4 4 4 4 3 3 4 4 4 3 3 3 3 2 2 2 2 2 3 4 4 4 5
12 12 7 10 11 5 11 10 8 4 4 4 4 4 5 5 5 5 5 5 5 5 5 4 5 4 3 3 4 4 3 3 3 2 2 2 2 2 3 3 4 4 4 5
8 8 8 8 9 7 8 7 6 6 6 5 5 5 5 6 6 5 5 5 5 4 4 4 5 5 3 3 3 3 3 3 3 2 2 2 2 3 3 3 3 4 4 5
7 7 8 10 8 6 8 9 9 7 6 4 4 5 6 6 6 6 5 5 5 4 4 5 5 4 4 3 3 3 3 3 2 2 2 2 2 3 3 4 4 5 5 6
8 8 10 10 8 8 8 8 8 7 7 7 6 5 4 5 6 5 5 5 5 5 5 4 4 4 4 4 3 3 2 2 2 2 2 2 2 3 3 4 5 7 9 14
Wind_Direction
199 222 227 228 226 264 299 294 288 286 288 268 263 271 275 267 253 244 237 232 227 214 189 175 169 164 166 172 173 172 170 176 169 164 165 165 169 166 162 161 171 174 177 178
211 225 233 234 235 255 267 274 280 288 312 302 276 279 276 259 240 235 241 240 233 215 187 169 163 165 172 178 179 176 173 174 174 170 167 165 163 168 167 163 174 178 181 181
221 215 208 224 228 238 250 256 273 297 316 275 267 285 267 234 202 207 224 226 227 217 196 170 169 174 175 179 181 180 174 172 174 166 155 147 139 140 157 173 176 180 182 181
232 226 199 217 232 232 253 263 280 293 299 293 308 296 279 220 187 198 203 200 209 214 200 176 171 175 179 181 175 176 171 171 174 169 166 167 172 176 182 173 172 182 186 182
223 203 205 220 226 230 242 42 278 273 275 279 259 253 270 218 188 188 167 163 182 190 188 178 173 175 175 170 167 172 172 174 178 178 177 179 182 180 168 167 175 183 185 178
242 209 204 221 219 237 224 256 260 248 257 260 235 224 274 234 154 133 122 135 154 161 172 175 164 162 165 162 163 171 177 180 181 184 183 184 185 183 179 179 180 180 175 176
226 216 193 171 185 190 195 215 250 215 213 237 189 216 252 201 107 101 111 119 133 149 166 177 171 171 171 169 171 179 185 188 187 188 190 191 191 190 190 183 179 177 177 185
209 212 190 187 201 188 198 215 230 253 257 280 205 230 241 146 124 126 140 144 140 150 170 185 184 181 181 179 179 185 194 195 191 192 195 196 193 192 190 181 176 183 188 189
208 207 165 172 196 212 198 215 243 290 291 278 253 237 209 146 142 166 171 166 168 169 177 188 188 186 187 186 188 190 195 198 197 194 193 196 194 191 187 181 179 185 185 184
257 197 160 156 166 228 247 234 194 214 243 255 256 247 226 175 181 182 175 171 166 170 180 188 193 193 193 192 191 191 195 199 199 195 194 196 195 192 183 180 184 185 184 178
239 230 164 167 195 196 195 216 217 222 242 246 271 270 73 144 153 168 177 157 162 181 187 190 196 193 189 188 188 191 195 198 198 197 195 193 193 188 182 184 187 185 182 177
211 230 215 205 190 198 199 207 207 214 231 226 251 268 189 120 126 150 192 192 199 190 178 180 187 185 188 192 193 193 194 197 197 193 193 193 190 184 186 190 189 184 183 183
191 208 213 185 180 209 221 219 221 232 255 248 242 255 196 146 171 194 217 226 220 184 170 178 181 188 195 194 193 194 196 197 191 185 188 189 187 187 191 192 189 185 184 187
195 214 214 212 199 180 207 216 217 220 231 241 240 254 261 249 253 256 247 238 212 178 171 176 190 201 200 193 190 191 196 190 184 181 185 191 192 190 191 189 186 185 185 192
202 224 234 246 244 203 211 214 215 221 229 239 249 254 261 270 273 272 265 247 216 198 189 191 199 211 205 195 188 185 188 184 179 180 187 192 186 182 182 185 186 187 192 201
206 227 233 243 239 240 246 232 222 225 233 243 258 264 265 277 281 281 279 256 240 239 213 196 193 201 206 197 187 183 182 177 169 178 186 181 179 182 186 189 189 193 200 206
187 210 212 234 231 249 247 228 226 227 226 230 244 253 264 271 269 266 272 261 245 234 209 193 194 195 192 185 177 181 173 159 162 176 180 179 180 186 189 188 191 202 209 214
196 212 219 217 204 233 239 216 216 227 235 229 238 252 251 253 258 256 248 244 243 221 196 184 177 172 168 160 156 152 145 152 166 179 186 185 185 191 191 195 206 215 217 221
209 205 208 193 221 255 242 218 206 216 241 230 238 248 251 245 306 281 247 215 203 187 162 155 150 150 152 156 149 143 154 160 172 188 192 187 185 193 198 207 217 222 227 235
219 214 207 200 214 233 228 188 168 175 256 234 225 234 230 175 238 253 186 143 144 129 125 130 128 132 142 145 136 144 164 167 186 188 181 176 185 199 209 217 225 230 232 240
186 203 210 212 226 251 229 157 132 183 237 203 194 206 199 200 214 200 156 149 149 145 141 136 135 142 145 137 137 155 165 180 170 144 147 177 202 212 220 227 232 237 243 248
181 188 201 202 219 238 180 157 183 210 185 178 188 198 204 205 185 168 165 160 155 152 149 145 143 140 129 130 140 158 173 154 126 130 160 200 219 224 228 233 244 243 243 252
199 198 194 202 217 214 175 191 204 191 202 212 206 205 191 197 200 193 185 177 173 167 161 151 146 139 135 138 145 160 157 125 123 141 191 222 232 237 238 238 246 253 251 254
216 202 217 231 229 211 202 212 213 208 210 210 203 198 189 201 203 194 184 179 173 165 159 150 146 152 157 144 136 146 137 132 142 181 217 227 239 252 252 249 243 249 252 259
204 194 218 236 237 228 224 222 227 225 213 212 210 201 198 198 202 193 184 178 170 161 153 148 156 161 159 143 138 134 134 135 162 203 225 241 249 257 264 262 253 258 250 256
215 207 214 231 219 217 227 213 214 214 215 211 203 203 200 193 192 180 175 166 156 152 146 147 152 153 152 144 140 137 136 148 174 211 237 247 259 266 269 278 289 283 279 285
Height
1514 1517 1516 1513 1512 1514 1514 1516 1517 1511 1504 1507 1507 1503 1496 1493 1492 1492 1492 1493 1495 1496 1498 1500 1502 1505 1508 1511 1513 1516 1518 1521 1524 1527 1529 1531 1534 1536 1537 1539 1540 1541 1542 1542
1512 1513 1509 1508 1509 1512 1514 1517 1516 1509 1503 1506 1505 1499 1489 1486 1486 1486 1487 1488 1490 1492 1494 1495 1498 1500 1503 1506 1509 1511 1514 1517 1520 1522 1525 1528 1530 1532 1534 1536 1537 1538 1539 1539
1507 1504 1504 1507 1509 1513 1514 1516 1514 1513 1508 1503 1504 1500 1487 1481 1481 1482 1483 1484 1486 1488 1490 1491 1493 1496 1499 1502 1504 1507 1509 1512 1516 1519 1522 1525 1527 1529 1530 1531 1533 1534 1535 1536
1501 1500 1503 1505 1507 1509 1514 1508 1509 1512 1517 1514 1507 1515 1491 1481 1480 1480 1481 1482 1483 1484 1486 1488 1489 1492 1495 1498 1501 1504 1506 1509 1512 1514 1517 1519 1521 1523 1524 1527 1529 1530 1531 1532
1497 1496 1500 1504 1504 1505 1506 1507 1509 1511 1515 1518 1508 1512 1495 1479 1481 1479 1478 1479 1481 1482 1483 1485 1486 1488 1491 1494 1497 1500 1502 1505 1507 1510 1512 1515 1517 1519 1521 1523 1525 1526 1527 1528
1493 1493 1495 1498 1500 1502 1504 1508 1509 1510 1516 1523 1503 1506 1497 1481 1477 1476 1477 1478 1479 1480 1481 1482 1484 1486 1488 1491 1493 1496 1498 1501 1503 1506 1508 1510 1512 1514 1517 1518 1519 1521 1522 1523
1494 1492 1493 1495 1500 1503 1505 1514 1521 1522 1526 1516 1493 1498 1492 1474 1472 1473 1475 1477 1477 1478 1479 1480 1482 1483 1485 1487 1489 1491 1494 1496 1498 1501 1503 1505 1507 1510 1512 1513 1514 1516 1517 1518
1495 1494 1490 1492 1495 1500 1504 1507 1518 1521 1515 1503 1495 1497 1482 1469 1470 1472 1474 1475 1476 1477 1477 1478 1479 1480 1481 1483 1485 1487 1489 1491 1493 1495 1498 1500 1503 1505 1507 1508 1509 1510 1511 1513
1482 1487 1482 1486 1489 1494 1500 1503 1499 1508 1506 1508 1496 1479 1471 1466 1469 1470 1472 1474 1475 1475 1476 1476 1477 1477 1478 1479 1480 1482 1484 1486 1488 1491 1493 1495 1498 1500 1501 1503 1504 1505 1506 1508
1473 1481 1483 1486 1490 1491 1493 1495 1502 1510 1514 1514 1494 1484 1479 1472 1470 1469 1470 1471 1473 1473 1474 1474 1475 1475 1475 1476 1477 1478 1480 1481 1484 1486 1488 1490 1492 1494 1496 1498 1499 1500 1501 1502
1472 1480 1486 1487 1489 1490 1494 1496 1495 1498 1498 1506 1504 1488 1464 1464 1464 1466 1467 1469 1470 1471 1471 1472 1472 1472 1473 1473 1473 1474 1475 1477 1479 1481 1483 1485 1486 1489 1490 1492 1493 1494 1495 1496
1469 1475 1482 1481 1477 1478 1482 1486 1491 1500 1497 1493 1499 1488 1459 1460 1461 1463 1465 1466 1467 1467 1468 1468 1468 1469 1469 1469 1470 1470 1471 1472 1474 1476 1478 1479 1481 1483 1484 1486 1487 1489 1489 1490
1467 1473 1482 1485 1487 1482 1480 1479 1481 1484 1489 1492 1495 1484 1459 1459 1460 1461 1462 1463 1464 1464 1464 1465 1465 1465 1465 1466 1466 1466 1467 1468 1469 1471 1473 1474 1476 1477 1479 1480 1482 1483 1483 1484
1462 1466 1472 1476 1472 1472 1477 1476 1476 1481 1488 1486 1481 1473 1463 1460 1459 1459 1459 1460 1460 1461 1461 1461 1462 1462 1462 1462 1462 1462 1463 1464 1465 1466 1468 1469 1471 1472 1474 1475 1476 1477 1477 1478
1459 1464 1462 1461 1460 1462 1466 1468 1470 1473 1473 1477 1469 1466 1460 1457 1456 1456 1456 1456 1457 1457 1458 1458 1458 1458 1458 1458 1459 1459 1459 1460 1461 1462 1463 1464 1466 1468 1469 1470 1470 1471 1472 1472
1458 1461 1461 1462 1459 1459 1462 1462 1463 1465 1465 1465 1463 1459 1452 1452 1452 1452 1452 1453 1453 1454 1454 1454 1454 1455 1455 1455 1455 1455 1455 1456 1457 1458 1459 1460 1462 1463 1464 1464 1465 1465 1466 1466
1458 1461 1463 1465 1459 1460 1464 1456 1456 1456 1454 1457 1458 1451 1448 1449 1448 1448 1449 1449 1450 1450 1450 1450 1451 1451 1451 1451 1451 1451 1452 1452 1453 1454 1455 1456 1456 1457 1458 1459 1459 1459 1459 1459
1455 1459 1461 1463 1464 1474 1452 1439 1441 1445 1444 1445 1444 1442 1443 1443 1444 1444 1445 1445 1445 1446 1446 1446 1447 1447 1448 1448 1448 1448 1449 1449 1449 1450 1450 1451 1452 1452 1453 1454 1454 1454 1453 1453
1448 1454 1460 1465 1464 1455 1441 1436 1436 1440 1440 1436 1437 1436 1437 1438 1440 1440 1440 1440 1441 1442 1442 1443 1443 1444 1444 1444 1444 1445 1445 1445 1446 1446 1446 1447 1447 1448 1448 1448 1448 1448 1447 1447
1444 1447 1456 1459 1461 1457 1435 1428 1428 1434 1440 1429 1429 1430 1433 1435 1442 1438 1436 1437 1437 1438 1439 1439 1440 1440 1440 1440 1441 1441 1441 1442 1442 1442 1443 1443 1443 1443 1443 1443 1443 1442 1442 1441
1445 1447 1451 1453 1454 1441 1425 1424 1428 1443 1435 1423 1424 1426 1428 1430 1432 1432 1433 1433 1434 1434 1435 1435 1436 1436 1436 1437 1437 1437 1438 1438 1439 1439 1439 1439 1439 1439 1438 1438 1437 1437 1436 1434
1435 1441 1443 1445 1449 1440 1421 1423 1426 1424 1420 1420 1421 1422 1424 1426 1427 1428 1429 1429 1430 1430 1431 1431 1432 1432 1432 1433 1434 1434 1434 1435 1435 1435 1435 1435 1435 1434 1433 1433 1432 1431 1430 1428
1419 1420 1423 1424 1422 1413 1412 1413 1414 1416 1417 1418 1418 1420 1421 1422 1423 1424 1425 1425 1426 1427 1427 1427 1428 1428 1429 1430 1430 1430 1431 1431 1431 1431 1431 1431 1430 1429 1429 1428 1426 1425 1424 1422
1408 1408 1411 1412 1408 1407 1408 1409 1410 1412 1413 1414 1415 1416 1417 1418 1418 1419 1420 1421 1422 1422 1423 1423 1424 1424 1425 1426 1426 1427 1427 1427 1427 1427 1427 1426 1425 1424 1423 1422 1421 1420 1418 1416
1400 1403 1405 1405 1402 1403 1403 1404 1406 1408 1409 1410 1411 1412 1413 1413 1414 1415 1415 1416 1417 1418 1419 1419 1420 1421 1421 1422 1423 1423 1423 1423 1423 1423 1422 1422 1421 1419 1418 1416 1415 1414 1412 1411
1393 1397 1400 1398 1396 1399 1398 1400 1402 1403 1404 1405 1406 1407 1408 1409 1409 1410 1410 1412 1413 1414 1415 1416 1416 1417 1418 1418 1419 1420 1420 1420 1419 1418 1418 1417 1415 1414 1412 1410 1408 1406 1406 1403